Location: Waco, TX
(31.5480°N, 97.1670°W)
Time: 12:39:35
(UTC-05:00)

ISS - Pass Details

Date: 17 May 2018
Orbit: 402 x 407 km, 51.6° (Epoch: 25 May)

Event Time Altitude Azimuth Distance (km) Brightness Sun altitude
Rises 21:36:56 0° 180° (S) 2,301 - -15.2°
Reaches altitude 10° 21:40:28 10° 139° (SE) 1,447 - -15.8°
Maximum altitude 21:41:13 11° 125° (SE) 1,412 - -15.9°
Drops below altitude 10° 21:41:58 10° 112° (ESE) 1,448 - -16.1°
Sets 21:45:30 0° 71° (ENE) 2,311 - -16.7°
